Date,TemperatureHighF,TemperatureAvgF,TemperatureLowF,DewpointHighF,DewpointAvgF,DewpointLowF,HumidityHigh,HumidityAvg,HumidityLow,PressureMaxIn,PressureMinIn,WindSpeedMaxMPH,WindSpeedAvgMPH,GustSpeedMaxMPH,PrecipitationSumIn
2014-1-1,33.7,29.2,19.7,24.8,13.6,4.4,87,53,35,30.31,29.77,28,14,35,0.00
2014-1-2,41.2,29.6,16.3,14.9,7.5,0.6,54,40,24,30.41,30.00,19,4,30,0.00
2014-1-3,43.9,35.8,20.1,17.9,10.9,6.9,58,36,25,30.03,29.51,33,13,40,0.00
2014-1-4,36.5,22.8,6.5,24.6,11.6,-5.8,87,63,39,30.14,29.44,28,10,35,0.00
2014-1-5,14.1,7.6,-2.4,-3.3,-7.6,-12.5,70,50,31,30.51,30.13,23,6,40,0.00
2014-1-6,29.0,18.7,7.8,9.8,0.7,-10.4,58,45,36,30.53,30.24,33,11,44,0.00
2014-1-7,38.4,22.7,8.3,16.5,8.8,-0.1,69,56,37,30.42,29.92,28,6,36,0.00
2014-1-8,33.9,27.1,18.8,17.8,15.6,11.4,75,62,47,30.09,29.86,15,2,22,0.00
2014-1-9,33.6,25.0,17.3,19.8,14.4,10.1,85,65,42,30.01,29.64,31,6,46,0.00
2014-1-10,27.0,22.2,17.2,19.6,10.5,0.4,88,61,46,29.95,29.64,35,15,47,0.00
2014-1-11,43.2,35.5,26.8,23.1,18.3,13.0,63,49,41,30.11,29.58,33,13,40,0.00
2014-1-12,37.3,27.0,16.6,24.4,14.4,1.0,88,59,44,30.08,29.45,30,11,39,0.00
2014-1-13,36.4,26.3,17.3,15.4,9.6,1.2,58,49,32,30.21,29.94,36,17,46,0.00
2014-1-14,33.4,27.6,23.9,14.6,11.9,5.5,64,52,31,30.42,30.07,32,13,34,0.00
2014-1-15,39.2,30.3,18.6,17.3,12.6,8.8,66,48,34,30.37,30.08,34,12,40,0.00
2014-1-16,38.1,29.1,21.5,12.9,9.8,6.5,55,44,29,30.31,30.02,34,14,41,0.00
2014-1-17,38.8,30.6,23.9,18.2,12.0,8.6,56,46,38,30.28,30.02,22,12,28,0.00
2014-1-18,43.9,30.7,20.6,19.6,11.8,7.0,57,45,30,30.30,30.03,27,9,35,0.00
2014-1-19,45.4,31.3,16.9,18.4,10.5,2.3,57,42,26,30.31,29.96,19,7,30,0.00
2014-1-20,41.6,31.4,20.8,15.7,10.4,5.3,58,42,29,30.44,29.95,26,9,30,0.00
2014-1-21,49.4,31.5,10.6,9.9,0.8,-8.1,54,29,12,30.57,30.03,31,6,34,0.00
2014-1-22,41.2,27.3,14.0,10.3,-0.7,-8.1,69,32,13,30.16,29.82,11,1,15,0.00
2014-1-23,28.1,18.1,8.9,16.4,10.7,2.0,88,73,49,30.64,30.01,9,1,9,0.02
2014-1-24,42.2,26.9,7.3,11.7,3.2,-5.5,75,39,20,30.64,30.22,24,8,31,0.00
2014-1-25,51.6,31.6,19.9,22.6,10.9,3.4,55,42,29,30.30,29.86,19,4,24,0.00
2014-1-26,45.8,34.6,25.2,16.9,14.0,10.9,65,44,26,29.91,29.65,19,6,26,0.00
2014-1-27,41.4,25.4,8.3,22.6,15.3,4.7,92,69,34,30.00,29.63,30,9,39,0.00
2014-1-28,28.8,14.6,-1.7,7.3,-2.0,-5.8,86,53,24,30.37,29.99,28,8,36,0.00
2014-1-29,41.2,33.3,19.5,26.1,12.0,-3.5,70,42,24,30.14,29.48,36,14,41,0.00
2014-1-30,38.9,30.5,27.2,29.6,27.6,23.8,96,89,62,29.61,29.34,30,4,33,0.15
2014-1-31,29.2,24.7,16.9,27.7,22.7,12.6,96,92,82,29.68,29.45,20,4,23,0.08
2014-2-1,29.6,13.1,2.1,23.3,8.3,-3.0,89,81,63,30.23,29.69,20,2,23,0.10
2014-2-2,26.1,8.8,-2.4,14.9,-0.0,-10.7,82,68,49,30.36,30.09,19,2,22,0.01
2014-2-3,30.7,11.9,0.8,16.5,4.3,-5.1,89,72,51,30.24,29.78,9,2,12,0.04
2014-2-4,19.7,12.7,4.9,15.9,9.3,1.4,89,86,80,30.20,29.79,11,0,14,0.09
2014-2-5,22.8,5.3,-7.9,6.4,-2.7,-11.7,85,71,41,30.48,30.15,14,2,15,0.00
2014-2-6,26.3,16.0,-7.2,10.7,5.0,-11.2,82,63,41,30.34,29.89,15,3,25,0.00
2014-2-7,31.8,21.3,8.5,18.6,11.4,3.3,83,66,45,30.02,29.79,24,6,31,0.01
2014-2-8,35.1,28.3,22.4,26.0,19.2,12.1,88,69,55,29.98,29.81,27,6,32,0.00
2014-2-9,41.4,31.9,26.0,29.8,26.6,23.5,94,82,51,29.93,29.73,21,3,24,0.04
2014-2-10,37.9,27.8,21.4,29.4,21.3,12.6,93,77,61,30.12,29.81,23,6,32,0.06
2014-2-11,33.9,22.3,5.8,12.7,8.0,-1.9,73,55,34,30.31,29.95,28,11,34,0.00
2014-2-12,38.9,30.3,18.3,22.5,14.4,6.3,62,52,37,30.23,29.81,34,12,42,0.02
2014-2-13,42.5,37.3,32.1,27.7,25.1,22.5,81,61,46,29.90,29.69,29,16,38,0.00
2014-2-14,41.5,37.3,30.1,29.2,24.2,16.9,89,60,43,29.93,29.75,28,13,35,0.00
2014-2-15,45.3,41.8,37.7,29.7,25.6,21.5,68,52,40,29.90,29.75,33,12,34,0.00
2014-2-16,45.2,37.5,27.4,30.2,21.5,11.5,87,53,36,29.92,29.61,47,10,50,0.00
2014-2-17,46.5,34.8,21.1,13.8,6.9,1.0,51,32,18,30.20,29.78,28,9,39,0.00
2014-2-18,47.3,39.7,28.6,14.5,10.9,6.8,51,31,21,29.86,29.69,25,10,33,0.00
2014-2-19,44.3,31.6,19.5,27.7,17.3,9.2,92,58,35,29.83,29.44,30,7,37,0.00
2014-2-20,24.2,18.4,12.7,9.6,0.3,-6.9,68,45,29,30.19,29.54,41,16,42,0.00
2014-2-21,35.0,27.5,19.4,11.4,7.4,1.7,62,43,32,30.10,29.81,36,18,38,0.00
2014-2-22,35.6,31.0,25.8,17.8,10.1,5.4,57,41,32,29.83,29.73,25,12,33,0.00
2014-2-23,45.7,35.1,27.0,13.5,10.8,8.6,56,37,25,29.92,29.78,29,9,35,0.00
2014-2-24,50.3,39.5,27.3,19.0,13.9,8.1,66,36,26,29.92,29.71,27,12,36,0.00
2014-2-25,50.0,37.4,15.6,20.0,15.3,10.4,83,43,27,29.98,29.61,25,9,33,0.00
2014-2-26,46.5,29.8,13.8,21.6,13.2,5.5,92,56,19,30.04,29.78,24,4,27,0.00
2014-2-27,46.8,34.9,23.3,29.7,21.3,14.0,90,58,37,29.81,29.40,26,7,32,0.00
2014-2-28,44.3,37.2,30.8,26.8,19.7,12.1,68,50,27,29.70,29.38,24,10,32,0.00
2014-3-1,41.5,32.8,25.6,31.6,25.9,19.9,93,77,42,29.79,29.48,21,3,33,0.09
2014-3-2,41.2,30.5,22.0,25.5,20.6,15.5,85,68,37,30.02,29.72,22,8,29,0.00
2014-3-3,45.5,34.6,23.4,22.4,18.4,15.5,77,53,34,30.06,29.80,24,7,27,0.00
2014-3-4,49.3,35.2,22.7,27.2,18.3,13.3,88,52,26,29.98,29.60,20,7,27,0.00
2014-3-5,45.0,33.7,22.7,23.5,14.6,9.3,71,47,24,30.12,29.76,28,12,34,0.00
2014-3-6,54.0,39.8,21.9,21.5,13.6,8.9,66,36,19,30.12,29.62,23,7,30,0.00
2014-3-7,38.7,32.4,25.0,31.1,24.1,20.2,92,72,50,30.07,29.51,21,7,29,0.02
2014-3-8,40.7,29.9,22.0,21.9,18.5,12.9,91,65,38,30.35,30.07,14,3,22,0.00
2014-3-9,58.0,37.5,16.7,15.9,10.7,-0.5,75,40,9,30.43,29.98,23,4,26,0.00
2014-3-10,58.4,44.3,29.2,11.8,5.7,-2.2,40,22,11,30.02,29.43,26,8,34,0.00
2014-3-11,45.5,32.7,19.6,22.5,14.4,6.2,84,50,20,30.23,29.35,27,11,37,0.00
2014-3-12,45.2,27.0,9.1,12.1,6.9,-1.1,78,49,15,30.51,30.16,7,1,12,0.00
2014-3-13,48.2,35.1,17.0,21.2,11.2,4.5,62,39,23,30.21,29.75,22,9,32,0.00
2014-3-14,50.8,37.3,21.8,19.6,14.1,7.1,66,41,18,30.01,29.74,15,4,22,0.00
2014-3-15,37.2,30.4,24.8,21.3,11.5,4.5,66,45,29,30.27,29.71,32,14,43,0.00
2014-3-16,49.5,35.3,22.8,16.6,11.3,6.7,56,38,21,30.31,29.92,40,18,46,0.00
2014-3-17,50.7,38.8,27.6,26.9,13.2,2.2,76,37,18,29.95,29.19,31,8,40,0.00
2014-3-18,35.1,26.7,18.8,14.1,6.0,0.1,67,42,26,30.02,29.25,28,13,33,0.00
2014-3-19,45.8,28.6,11.7,16.3,7.9,2.4,83,48,17,30.25,29.98,23,5,39,0.00
2014-3-20,48.6,37.3,28.0,4.8,-3.5,-14.0,35,19,7,29.99,29.73,24,10,35,0.00
2014-3-21,49.3,36.8,24.1,21.4,6.9,-0.9,72,32,14,29.93,29.69,15,4,25,0.00
2014-3-22,44.2,26.6,16.1,28.8,18.5,12.7,90,73,38,30.25,29.81,25,4,35,0.00
2014-3-23,45.3,29.8,12.1,17.4,9.5,2.0,92,50,19,30.38,29.92,24,6,30,0.00
2014-3-24,48.4,36.6,26.8,12.0,4.3,0.1,48,27,15,30.07,29.88,27,9,39,0.00
2014-3-25,56.0,40.6,26.6,16.1,6.9,-2.2,54,27,10,30.10,29.61,13,4,20,0.00
2014-3-26,48.3,34.3,26.2,30.3,19.4,8.4,93,57,26,29.68,29.29,17,4,27,0.00
2014-3-27,36.5,29.3,22.9,26.3,21.9,17.2,93,75,49,29.81,29.28,20,3,28,0.04
2014-3-28,36.7,28.9,20.1,22.3,13.1,6.6,91,54,32,30.24,29.79,18,4,22,0.02
2014-3-29,51.0,36.7,19.7,16.6,11.4,5.7,58,36,22,30.27,29.80,27,5,33,0.00
2014-3-30,52.1,39.2,29.1,27.6,15.9,6.8,77,40,24,29.83,29.32,26,6,37,0.00
2014-3-31,44.1,33.0,22.8,18.4,9.5,-0.5,83,42,16,29.92,29.51,28,9,36,0.00
2014-4-1,43.4,32.5,22.4,26.0,17.5,7.7,90,57,30,29.90,29.57,10,2,18,0.00
2014-4-2,44.4,35.1,28.4,26.1,14.6,3.5,74,44,26,29.61,29.39,17,6,27,0.00
2014-4-3,31.6,26.2,21.7,25.8,20.0,10.7,90,78,58,30.15,29.52,13,2,18,0.00
2014-4-4,41.3,28.7,14.5,18.2,11.8,3.5,75,52,21,30.20,29.83,15,3,17,0.00
2014-4-5,43.6,30.2,22.1,29.5,20.2,12.2,92,69,31,29.92,29.71,16,1,19,0.02
2014-4-6,43.0,31.0,20.5,24.9,17.6,13.8,89,60,31,29.98,29.77,29,8,35,0.00
2014-4-7,44.7,32.7,21.7,21.7,18.0,8.8,90,59,24,30.18,29.87,33,9,36,0.00
2014-4-8,57.7,43.0,26.0,23.6,20.4,17.6,77,45,22,30.21,29.85,26,7,33,0.00
2014-4-9,60.4,48.5,39.7,20.3,16.4,8.8,45,29,16,30.02,29.68,18,5,23,0.00
2014-4-10,59.3,49.2,36.1,21.9,14.0,9.7,55,25,15,29.82,29.62,17,5,25,0.00
2014-4-11,62.0,47.6,29.8,22.1,15.9,7.2,67,32,12,29.90,29.58,18,4,21,0.00
2014-4-12,58.5,48.6,39.6,28.5,17.7,6.2,64,31,17,29.63,29.37,26,7,30,0.00
2014-4-13,42.4,32.6,15.3,35.9,25.0,11.6,91,75,55,30.02,29.28,23,5,31,0.03
2014-4-14,37.7,21.7,8.8,17.6,10.6,3.8,95,67,31,30.41,30.02,27,7,31,0.07
2014-4-15,52.2,38.2,22.0,17.6,11.0,4.9,60,35,17,30.19,29.50,26,7,33,0.00
2014-4-16,53.6,42.2,29.3,30.2,18.3,10.3,92,43,22,29.88,29.44,23,9,36,0.00
2014-4-17,55.2,39.6,26.8,30.7,24.2,18.5,94,62,24,30.10,29.81,17,4,22,0.06
2014-4-18,65.5,47.7,31.2,29.8,24.3,20.1,67,43,20,29.93,29.64,29,4,37,0.00
2014-4-19,59.0,46.5,36.8,38.7,31.4,25.6,81,57,35,29.84,29.63,22,4,25,0.00
2014-4-20,59.5,46.5,34.8,36.9,32.0,26.1,87,61,31,29.88,29.73,24,7,34,0.00
2014-4-21,63.0,46.6,32.4,32.7,27.7,18.5,74,51,19,30.08,29.79,18,4,23,0.00
2014-4-22,62.8,46.7,31.7,41.3,31.7,27.4,85,58,31,29.91,29.39,32,3,46,0.01
2014-4-23,56.7,47.1,35.5,31.0,21.6,12.4,55,37,22,29.62,29.29,28,11,39,0.00
2014-4-24,56.7,43.7,30.0,16.1,11.3,6.8,43,28,18,29.88,29.63,27,10,34,0.00
2014-4-25,64.1,49.9,30.6,18.5,15.2,11.7,50,27,15,29.78,29.33,29,7,33,0.00
2014-4-26,56.8,47.8,36.4,32.8,21.6,16.1,83,38,23,29.32,29.04,28,8,33,0.01
2014-4-27,45.8,37.9,30.5,25.5,18.4,11.8,75,47,27,29.53,29.05,31,14,43,0.00
2014-4-28,40.1,31.2,24.8,22.5,15.9,7.9,82,54,30,29.97,29.48,41,13,45,0.00
2014-4-29,42.0,32.8,24.0,17.5,11.9,6.9,63,43,26,30.13,29.94,37,18,38,0.00
2014-4-30,43.6,33.9,23.5,15.7,10.7,6.6,64,39,22,30.20,30.06,27,9,33,0.00
2014-5-1,49.3,37.7,25.2,16.1,11.7,2.6,55,36,19,30.21,29.96,31,14,39,0.00
2014-5-2,61.6,48.4,29.4,24.1,19.4,13.1,53,33,22,30.02,29.70,21,6,26,0.00
2014-5-3,68.5,53.6,36.6,26.3,20.2,12.7,56,31,12,29.80,29.62,21,5,29,0.00
2014-5-4,69.3,55.2,40.3,24.4,17.9,13.3,43,25,13,29.75,29.52,29,6,43,0.00
2014-5-5,69.3,55.5,39.6,19.4,15.2,11.5,40,21,13,29.74,29.38,29,7,35,0.00
2014-5-6,66.2,52.7,36.4,20.0,14.9,11.5,42,23,13,29.49,29.23,29,6,33,0.00
2014-5-7,58.0,48.5,38.4,21.8,14.5,9.3,50,27,17,29.44,29.23,27,10,38,0.00
2014-5-8,51.1,40.9,33.6,24.9,19.3,14.0,62,42,26,29.79,29.44,24,7,30,0.00
2014-5-9,51.4,43.0,34.4,32.7,24.7,18.7,88,49,33,29.78,29.60,24,9,31,0.02
2014-5-10,58.2,45.6,33.5,36.3,30.8,24.3,90,60,28,29.75,29.33,29,5,31,0.02
2014-5-11,46.9,37.9,26.2,38.0,29.5,23.7,91,73,53,29.88,29.27,24,6,32,0.10
2014-5-12,33.5,27.4,23.0,24.9,21.8,19.6,91,80,59,30.36,29.83,12,2,15,0.10
2014-5-13,41.7,30.4,19.3,21.9,18.4,11.7,90,64,30,30.46,30.29,25,4,31,0.02
2014-5-14,48.4,36.5,23.1,24.4,17.9,12.9,71,49,26,30.44,30.17,28,7,31,0.00
2014-5-15,56.1,42.0,28.4,33.6,26.4,21.4,81,57,30,30.20,29.96,21,6,30,0.00
2014-5-16,62.0,47.7,33.5,37.8,30.3,21.1,82,55,21,29.98,29.73,29,8,34,0.02
2014-5-17,68.0,51.8,36.6,39.0,30.6,19.2,93,53,16,29.84,29.56,19,4,32,0.01
2014-5-18,71.2,53.7,34.4,34.7,25.5,16.2,80,39,14,29.69,29.40,23,4,36,0.00
2014-5-19,71.4,58.7,43.9,22.1,16.1,7.1,34,20,11,29.53,29.33,36,10,45,0.00
2014-5-20,72.5,56.2,35.5,22.5,18.2,13.7,46,25,11,29.67,29.47,28,6,34,0.00
2014-5-21,67.8,53.7,36.1,42.0,27.8,17.0,72,39,19,29.77,29.59,25,5,37,0.04
2014-5-22,63.6,51.8,42.6,44.4,39.5,32.4,87,66,32,29.88,29.69,23,2,33,0.16
2014-5-23,64.3,51.6,42.1,42.3,39.2,31.8,91,66,33,29.87,29.62,17,3,26,0.01
2014-5-24,67.1,49.3,37.7,41.9,36.7,23.2,92,68,21,29.79,29.51,18,4,28,0.18
2014-5-25,55.1,44.5,40.4,41.1,38.7,34.6,94,81,51,29.88,29.60,16,2,23,0.16
2014-5-26,67.2,51.5,35.5,40.5,34.0,29.5,87,57,25,29.98,29.68,18,3,22,0.00
2014-5-27,73.6,57.7,39.1,40.4,34.2,28.2,85,48,19,29.86,29.72,24,6,30,0.00
2014-5-28,76.4,59.3,39.7,38.8,33.7,26.9,77,43,17,29.90,29.65,20,3,28,0.00
2014-5-29,74.6,57.2,42.0,43.2,38.3,33.4,77,53,26,29.83,29.60,28,3,33,0.00
2014-5-30,62.3,54.4,45.7,48.1,44.4,39.5,85,70,53,29.83,29.63,13,2,16,0.04
2014-5-31,72.1,56.4,39.8,43.5,37.8,30.4,88,55,26,29.92,29.50,37,3,37,0.00
2014-6-1,71.7,59.3,46.4,38.4,27.5,18.2,67,34,14,29.69,29.48,24,5,33,0.00
2014-6-2,77.5,58.7,37.3,41.9,27.8,18.1,56,35,12,29.85,29.55,21,3,30,0.00
2014-6-3,76.0,62.3,44.5,37.2,27.9,15.9,67,32,13,29.63,29.43,31,7,35,0.00
2014-6-4,78.7,61.0,38.7,27.7,20.3,14.4,43,22,11,29.69,29.42,29,5,29,0.00
2014-6-5,76.1,60.6,37.8,45.2,27.7,17.2,65,31,11,29.69,29.45,20,4,27,0.00
2014-6-6,74.8,61.3,50.2,45.3,35.5,21.9,80,45,14,29.63,29.40,29,4,33,0.00
2014-6-7,72.3,56.7,43.6,43.4,36.0,22.6,68,48,17,29.68,29.50,28,4,40,0.00
2014-6-8,61.1,50.2,38.3,45.9,37.9,25.0,85,65,27,29.81,29.51,30,7,40,0.03
2014-6-9,68.0,52.7,38.2,33.7,25.1,18.5,71,39,17,29.98,29.65,29,15,35,0.00
2014-6-10,73.8,55.7,35.9,35.2,28.7,24.4,65,39,19,29.80,29.56,27,5,42,0.00
2014-6-11,72.6,57.7,42.6,37.6,33.0,28.2,59,41,23,29.68,29.49,40,7,46,0.01
2014-6-12,73.0,56.5,38.1,43.0,36.1,25.6,82,52,18,29.89,29.60,23,4,34,0.00
2014-6-13,76.4,61.1,39.7,41.9,32.8,22.6,86,43,14,29.73,29.25,26,4,38,0.00
2014-6-14,70.7,58.5,45.6,33.2,24.4,16.5,50,28,16,29.59,29.18,28,8,39,0.00
2014-6-15,71.7,55.7,36.9,27.0,20.8,16.1,53,28,15,29.77,29.41,22,5,32,0.00
2014-6-16,72.8,58.7,39.5,25.1,19.7,14.6,36,23,15,29.56,29.34,23,5,44,0.00
2014-6-17,75.2,61.9,44.3,29.5,23.3,14.1,32,23,16,29.53,29.31,29,7,40,0.00
2014-6-18,70.1,58.0,43.0,36.0,29.2,25.4,60,35,22,29.66,29.32,33,7,44,0.00
2014-6-19,73.4,57.6,38.6,31.8,25.3,12.3,67,34,10,29.92,29.65,22,7,29,0.00
2014-6-20,79.6,62.7,40.4,29.2,23.6,18.4,46,25,11,29.84,29.53,17,5,22,0.00
2014-6-21,76.1,61.3,48.0,34.9,28.5,20.9,42,30,17,29.69,29.50,25,3,32,0.00
2014-6-22,72.7,57.5,44.5,43.1,32.8,25.1,66,41,21,29.80,29.58,24,3,32,0.01
2014-6-23,74.3,56.3,39.9,42.0,36.4,29.6,80,52,20,29.89,29.63,29,5,33,0.00
2014-6-24,75.8,60.0,39.8,41.4,35.1,28.2,79,45,18,29.89,29.58,20,3,30,0.00
2014-6-25,80.1,63.7,44.0,46.6,36.7,26.4,83,43,15,29.73,29.42,20,2,24,0.00
2014-6-26,81.0,64.7,42.7,35.0,29.2,19.2,59,30,12,29.60,29.19,31,3,38,0.00
2014-6-27,70.9,63.4,50.7,33.0,29.0,21.0,38,28,18,29.41,29.19,26,8,35,0.00
2014-6-28,73.6,62.2,51.0,36.2,29.4,22.4,56,31,17,29.66,29.36,20,7,28,0.00
2014-6-29,82.1,65.6,45.2,34.6,29.2,21.3,45,27,16,29.69,29.42,24,6,47,0.00
2014-6-30,82.5,69.0,50.6,43.6,31.9,27.3,49,27,15,29.56,29.37,30,6,31,0.00
2014-7-1,80.9,63.6,55.0,48.1,43.9,19.0,68,51,10,29.77,29.47,16,3,22,0.00
2014-7-2,78.7,62.6,52.5,49.2,45.2,41.2,80,55,27,29.84,29.51,13,3,22,0.00
2014-7-3,80.3,62.5,44.9,47.5,42.0,33.5,90,53,21,29.84,29.66,14,2,22,0.03
2014-7-4,77.7,60.7,46.6,50.7,43.5,37.7,91,57,26,29.91,29.66,17,4,26,0.23
2014-7-5,80.1,62.4,44.9,48.4,42.4,36.2,90,55,21,29.99,29.73,20,3,27,0.00
2014-7-6,81.7,66.2,47.1,42.6,39.6,35.2,73,42,19,29.87,29.59,23,6,30,0.00
2014-7-7,79.8,64.1,49.2,49.9,41.3,36.8,64,45,24,29.78,29.54,7,0,10,0.02
2014-7-8,77.2,61.2,46.0,50.4,44.6,34.6,84,57,22,29.86,29.62,0,0,0,0.01
2014-7-9,78.7,62.5,46.1,47.2,42.4,37.0,81,52,25,29.86,29.58,19,1,23,0.02
2014-7-10,80.2,65.7,51.3,49.8,43.9,39.2,74,48,25,29.70,29.51,25,4,34,0.03
2014-7-11,78.2,64.5,54.3,51.5,47.6,42.5,75,56,30,29.77,29.56,20,4,32,0.00
2014-7-12,80.8,60.9,54.9,54.5,48.7,44.1,92,67,29,29.91,29.64,17,3,25,0.17
2014-7-13,77.6,62.7,49.3,55.0,51.1,47.4,94,69,37,30.00,29.69,14,1,19,0.01
2014-7-14,81.0,64.2,53.0,53.7,50.4,37.3,90,65,21,29.87,29.65,18,2,30,0.00
2014-7-15,71.9,60.8,51.8,55.4,49.7,41.8,94,69,41,29.83,29.60,21,2,30,0.25
2014-7-16,74.8,60.7,50.1,50.5,46.4,39.3,89,63,30,29.72,29.47,28,4,38,0.09
2014-7-17,74.2,59.1,44.6,50.6,46.4,41.3,93,67,32,29.72,29.56,14,2,20,0.01
2014-7-18,77.1,61.5,46.1,49.7,44.6,37.8,88,59,25,29.75,29.54,24,2,32,0.01
2014-7-19,76.3,59.9,46.0,52.8,44.4,37.1,79,59,28,29.82,29.63,22,2,29,0.12
2014-7-20,82.7,63.2,45.8,47.3,42.5,35.8,82,52,19,29.83,29.59,26,6,32,0.00
2014-7-21,80.3,65.3,50.5,46.8,41.5,34.2,76,46,23,29.84,29.66,11,3,15,0.00
2014-7-22,86.5,68.8,47.1,46.0,36.1,27.5,58,34,13,29.92,29.68,19,3,31,0.00
2014-7-23,78.9,65.0,50.8,51.1,42.7,38.0,69,47,24,29.93,29.78,17,4,26,0.00
2014-7-24,82.6,66.1,53.0,51.3,45.5,41.0,68,50,26,29.85,29.55,33,5,34,0.00
2014-7-25,80.2,66.0,53.8,52.4,47.2,43.0,82,53,29,29.73,29.55,29,8,35,0.10
2014-7-26,78.7,61.3,49.1,55.6,48.6,44.5,86,67,32,29.89,29.65,21,4,27,0.09
2014-7-27,77.5,59.3,46.9,54.2,48.6,43.8,93,72,34,30.02,29.79,14,2,20,0.10
2014-7-28,73.3,59.7,53.5,54.2,51.9,46.6,93,78,45,30.02,29.79,16,2,20,0.09
2014-7-29,68.7,58.6,50.1,53.7,50.3,47.2,94,76,50,29.94,29.70,24,3,28,0.04
2014-7-30,65.4,58.4,51.1,52.0,49.5,45.5,94,73,54,29.91,29.71,13,2,18,0.16
2014-7-31,62.5,54.2,50.1,54.5,50.3,49.0,96,87,68,29.94,29.82,13,1,19,0.20
2014-8-1,63.9,53.8,47.2,51.6,48.7,44.7,95,83,62,30.01,29.83,16,0,19,0.19
2014-8-2,74.1,57.3,41.2,52.8,44.6,37.8,93,67,27,30.08,29.76,13,2,16,0.01
2014-8-3,78.4,61.2,46.9,51.8,47.3,40.8,92,65,27,29.91,29.66,14,2,20,0.19
2014-8-4,73.0,58.8,49.6,52.3,49.7,45.0,92,74,39,29.89,29.67,13,1,14,0.19
2014-8-5,74.2,60.8,48.3,51.9,44.8,37.9,92,61,29,29.89,29.65,24,5,29,0.01
2014-8-6,77.1,62.7,48.1,46.7,42.1,35.3,80,51,23,29.77,29.59,22,6,33,0.00
2014-8-7,77.6,63.5,48.8,49.5,41.8,32.8,84,49,21,29.76,29.54,21,4,24,0.00
2014-8-8,75.5,61.6,45.4,49.8,37.4,27.4,83,46,17,29.78,29.61,20,4,25,0.00
2014-8-9,74.3,59.6,43.7,39.4,35.8,31.0,64,43,22,29.85,29.68,28,6,40,0.00
2014-8-10,72.1,55.1,42.6,51.2,42.6,35.4,92,65,34,30.06,29.84,19,2,26,0.32
2014-8-11,73.1,57.4,42.9,49.0,44.6,39.9,93,66,32,30.14,29.89,12,1,19,0.01
2014-8-12,77.2,60.9,45.2,48.3,44.6,41.2,89,59,30,30.02,29.74,15,3,22,0.00
2014-8-13,75.3,61.9,47.6,52.5,46.3,41.9,82,59,36,29.89,29.62,16,2,21,0.02
2014-8-14,71.7,60.7,52.1,54.5,49.6,45.3,89,68,43,29.73,29.59,24,5,32,0.06
2014-8-15,78.5,59.7,48.5,51.5,44.7,36.4,82,61,26,29.79,29.62,18,6,26,0.12
2014-8-16,77.8,61.3,45.6,49.4,42.2,38.2,81,53,27,29.91,29.69,11,1,15,0.00
2014-8-17,77.6,61.6,45.0,49.5,38.9,36.0,72,46,25,29.90,29.68,21,2,36,0.02
2014-8-18,76.9,60.6,42.9,43.4,38.6,34.3,73,47,26,29.84,29.59,30,3,30,0.01
2014-8-19,72.8,59.0,49.4,50.1,43.2,37.6,81,57,33,29.70,29.45,22,2,33,0.07
2014-8-20,74.2,63.4,51.1,49.8,43.8,36.9,83,52,31,29.60,29.45,22,7,27,0.00
2014-8-21,72.5,62.7,49.3,43.1,39.7,35.7,66,44,27,29.72,29.52,18,6,24,0.00
2014-8-22,62.7,55.8,49.6,49.0,44.3,38.3,82,66,48,29.75,29.60,16,3,21,0.01
2014-8-23,64.9,54.9,41.9,47.5,41.3,37.0,92,63,40,29.77,29.58,24,7,36,0.01
2014-8-24,72.4,60.4,50.8,38.6,35.9,31.8,59,41,27,29.71,29.55,28,10,33,0.00
2014-8-25,73.2,57.1,43.9,46.0,39.3,35.6,74,54,27,29.81,29.66,18,2,22,0.00
2014-8-26,68.4,55.4,44.4,50.4,44.2,38.6,91,68,40,29.95,29.70,17,2,26,0.01
2014-8-27,67.7,56.2,48.3,50.2,42.2,34.9,95,64,32,29.89,29.68,28,7,37,0.13
2014-8-28,63.8,55.2,46.1,41.2,38.5,33.2,76,55,33,29.86,29.71,27,8,35,0.00
2014-8-29,72.4,55.5,42.8,45.8,38.2,31.6,82,57,23,29.90,29.67,19,3,25,0.03
2014-8-30,71.2,51.1,37.9,45.9,39.2,33.2,86,67,29,29.97,29.60,26,2,36,0.01
2014-8-31,71.4,58.3,45.5,40.8,37.4,33.4,81,49,27,29.66,29.47,33,6,44,0.00
2014-9-1,73.7,60.2,44.8,37.1,33.1,29.5,62,39,22,29.74,29.51,24,7,38,0.00
2014-9-2,77.6,60.9,41.0,36.1,32.4,29.8,64,38,19,29.83,29.55,23,7,28,0.00
2014-9-3,80.9,64.0,45.2,38.2,33.1,30.0,60,35,17,29.65,29.38,27,4,35,0.00
2014-9-4,72.2,58.3,45.1,45.7,35.9,29.6,90,46,25,29.78,29.43,32,6,34,0.07
2014-9-5,65.2,52.6,46.2,48.8,46.4,44.6,95,81,50,30.03,29.74,14,2,16,0.26
2014-9-6,69.2,56.9,47.8,47.7,45.2,40.0,91,68,37,30.02,29.78,19,2,27,0.00
2014-9-7,71.0,56.9,42.8,47.8,44.0,40.1,92,65,34,29.96,29.69,22,3,32,0.00
2014-9-8,67.6,57.7,49.7,48.7,43.9,41.8,86,61,41,29.79,29.59,17,3,26,0.03
2014-9-9,65.0,55.5,48.2,51.9,46.3,40.3,93,73,46,29.65,29.48,26,6,35,0.07
2014-9-10,67.3,55.8,46.3,40.8,35.8,29.4,78,50,25,29.77,29.58,17,8,21,0.00
2014-9-11,70.1,55.1,38.9,42.8,32.8,27.4,87,48,22,29.92,29.65,19,4,25,0.00
2014-9-12,64.3,46.0,33.1,43.4,35.1,29.5,90,69,31,30.19,29.76,13,2,17,0.00
2014-9-13,72.9,51.6,28.9,35.0,29.0,26.0,93,50,20,30.17,29.75,21,4,25,0.00
2014-9-14,72.4,55.3,36.0,36.9,31.0,26.0,70,42,23,30.02,29.72,23,4,28,0.00
2014-9-15,73.2,56.5,40.1,43.9,35.6,30.5,80,49,23,30.00,29.77,28,2,28,0.00
2014-9-16,75.7,56.4,39.4,42.1,37.2,31.3,88,55,22,30.05,29.71,10,2,14,0.00
2014-9-17,76.8,60.2,43.3,39.6,34.5,31.6,66,41,20,29.86,29.59,16,2,25,0.00
2014-9-18,77.5,59.9,41.8,39.2,34.1,29.3,71,42,18,29.81,29.54,10,2,17,0.00
2014-9-19,78.4,60.2,42.4,42.6,34.8,28.8,64,41,20,29.75,29.53,18,2,26,0.00
2014-9-20,76.4,60.3,44.0,48.0,40.5,35.6,93,51,26,29.92,29.59,25,3,26,0.14
2014-9-21,64.8,54.5,49.8,52.3,50.0,47.1,95,86,56,30.06,29.83,11,2,15,0.06
2014-9-22,66.3,55.9,49.5,52.5,46.6,40.7,96,74,43,29.94,29.71,25,5,36,0.23
2014-9-23,70.3,56.3,44.7,45.1,40.5,36.3,83,58,31,29.90,29.72,20,4,23,0.00
2014-9-24,74.2,56.9,40.1,41.3,37.3,32.1,83,52,24,30.05,29.80,8,1,14,0.00
2014-9-25,77.5,58.8,42.3,43.7,39.3,35.9,80,52,24,30.02,29.68,12,2,14,0.00
2014-9-26,78.4,60.1,42.7,44.1,39.9,36.6,81,51,25,29.85,29.56,17,3,26,0.01
2014-9-27,75.7,57.7,42.5,45.7,38.8,35.2,78,52,23,29.73,29.45,17,2,26,0.01
2014-9-28,59.6,54.4,47.2,46.8,42.2,35.4,77,63,54,29.68,29.53,15,3,24,0.00
2014-9-29,53.7,46.9,41.9,45.1,38.5,28.0,93,74,51,29.74,29.58,26,5,42,0.10
2014-9-30,50.9,45.9,38.4,33.3,29.2,26.0,75,52,38,29.70,29.61,25,11,33,0.00
2014-10-1,56.1,41.8,30.4,35.0,30.5,26.1,89,66,36,29.82,29.57,24,6,37,0.02
2014-10-2,55.7,43.1,32.8,28.2,22.4,15.1,74,46,20,30.05,29.76,30,11,36,0.00
2014-10-3,60.2,49.2,38.2,27.5,20.1,11.7,52,34,15,30.07,29.89,21,9,30,0.00
2014-10-4,65.7,52.4,36.0,27.4,23.1,19.0,56,33,20,30.02,29.70,25,12,33,0.00
2014-10-5,65.4,51.8,40.4,29.6,24.9,20.0,51,37,18,29.84,29.67,28,11,31,0.00
2014-10-6,69.3,54.2,39.4,30.4,26.0,20.6,57,36,16,29.83,29.58,22,5,26,0.00
2014-10-7,68.6,54.6,38.4,29.8,25.6,19.1,50,34,19,29.90,29.63,19,4,26,0.00
2014-10-8,69.1,52.7,38.7,34.4,27.7,23.5,58,40,23,29.88,29.62,10,1,17,0.00
2014-10-9,49.8,43.4,37.6,41.8,35.9,30.4,94,76,52,30.00,29.62,7,1,12,0.78
2014-10-10,47.1,41.7,36.7,38.9,37.2,34.7,95,85,66,30.07,29.94,6,1,10,0.12
2014-10-11,58.7,45.9,33.5,40.0,33.9,28.8,100,66,38,30.04,29.59,25,4,31,0.00
2014-10-12,49.0,39.8,32.3,35.0,29.9,25.4,92,68,47,30.03,29.44,25,10,35,0.20
2014-10-13,47.4,38.6,28.9,25.5,24.1,21.4,77,57,40,30.12,29.94,24,11,32,0.00
2014-10-14,66.7,45.8,29.7,32.2,25.6,20.4,69,47,24,30.20,29.82,21,3,26,0.00
2014-10-15,65.3,48.0,30.5,33.1,25.9,20.0,74,45,25,30.10,29.62,15,1,25,0.00
2014-10-16,67.9,57.6,41.8,29.6,23.4,18.4,47,27,17,29.76,29.52,26,7,35,0.00
2014-10-17,63.5,47.1,31.1,29.8,26.3,21.6,71,47,26,29.96,29.71,11,1,13,0.00
2014-10-18,62.6,47.5,31.7,33.8,30.4,26.3,84,54,32,29.99,29.78,7,1,12,0.00
2014-10-19,62.5,50.3,42.7,39.8,33.8,30.3,72,54,33,29.91,29.72,10,2,17,0.00
2014-10-20,62.2,46.6,33.5,38.0,34.1,29.5,86,64,38,30.06,29.80,16,1,25,0.00
2014-10-21,59.1,46.0,33.9,39.5,34.9,29.7,87,67,44,29.96,29.71,18,2,21,0.00
2014-10-22,54.9,45.1,35.1,38.0,34.0,29.8,91,67,42,29.98,29.74,29,4,34,0.01
2014-10-23,62.8,47.7,30.8,32.5,29.5,24.5,79,52,30,30.09,29.85,22,5,24,0.00
2014-10-24,70.0,49.9,33.9,26.6,23.3,18.8,66,40,16,30.13,29.85,18,6,26,0.00
2014-10-25,70.1,48.8,28.1,28.6,20.4,15.6,59,35,14,30.24,29.76,14,3,18,0.00
2014-10-26,63.3,55.4,42.3,32.2,25.9,17.0,51,33,20,29.75,29.38,32,9,40,0.00
2014-10-27,53.5,45.1,31.7,33.4,21.7,10.5,68,40,23,29.89,29.35,34,15,42,0.00
2014-10-28,57.3,39.2,23.1,20.2,13.9,4.9,79,42,17,30.14,29.89,14,4,22,0.00
2014-10-29,61.0,45.8,29.1,18.8,12.7,2.6,42,27,18,30.15,29.82,26,8,27,0.00
2014-10-30,61.3,43.9,29.2,25.2,19.9,14.0,60,40,24,30.22,29.91,12,2,13,0.00
2014-10-31,58.5,39.7,24.5,26.4,21.8,17.1,76,51,28,30.31,29.92,10,1,15,0.00
2014-11-1,58.4,42.9,30.4,36.4,29.6,20.1,78,60,41,30.00,29.61,18,2,23,0.01
2014-11-2,44.3,39.6,31.1,36.9,34.3,28.2,90,81,65,29.74,29.54,7,1,16,0.08
2014-11-3,43.0,34.8,26.9,30.0,22.0,18.0,92,61,39,30.11,29.66,21,8,27,0.01
2014-11-4,50.2,34.6,22.3,19.3,15.9,10.1,73,49,22,30.33,30.07,25,6,29,0.00
2014-11-5,59.6,42.8,28.6,25.1,15.3,6.9,51,34,16,30.25,29.96,26,10,32,0.00
2014-11-6,62.4,44.6,26.4,25.0,19.2,14.4,61,38,22,30.43,29.95,17,2,21,0.00
2014-11-7,60.0,47.3,34.8,23.3,19.4,12.0,60,34,22,30.06,29.73,22,7,31,0.00
2014-11-8,61.0,42.1,24.7,27.8,15.4,1.1,84,43,10,30.28,29.85,17,3,27,0.00
2014-11-9,60.4,46.5,30.8,20.1,13.1,3.8,35,26,19,29.96,29.31,25,7,28,0.00
2014-11-10,55.8,41.2,17.7,28.9,19.5,12.0,87,46,21,29.70,29.12,34,16,38,0.00
2014-11-11,46.3,22.9,10.5,15.8,9.8,4.5,89,65,23,30.17,29.68,28,8,46,0.00
2014-11-12,10.5,4.6,-4.2,5.6,-0.1,-8.5,92,81,75,30.65,29.96,10,5,13,0.00
2014-11-13,29.7,13.1,-9.4,25.9,9.4,-13.6,94,85,76,30.71,29.93,7,0,14,0.00
2014-11-14,38.0,30.7,22.3,26.7,23.2,18.8,94,75,52,29.97,29.69,14,3,20,0.10
2014-11-15,34.9,28.4,11.0,27.0,20.7,7.6,93,74,46,29.95,29.66,24,7,28,0.02
2014-11-16,20.9,12.4,-1.3,7.3,2.5,-5.4,86,66,45,30.46,29.95,33,13,39,0.00
2014-11-17,27.2,18.9,9.2,6.1,1.4,-2.6,58,46,34,30.39,30.17,33,11,38,0.00
2014-11-18,36.1,26.0,11.2,10.4,5.2,-1.1,60,42,29,30.44,30.04,29,10,40,0.00
2014-11-19,43.9,35.1,26.9,10.9,6.9,2.9,47,31,24,30.07,29.85,34,12,42,0.00
2014-11-20,44.4,32.9,23.9,15.5,9.4,4.7,51,38,23,30.04,29.84,18,2,20,0.00
2014-11-21,44.1,31.5,20.7,19.1,14.4,10.2,69,50,32,30.08,29.76,15,3,20,0.00
2014-11-22,44.4,33.0,19.4,26.7,17.0,9.9,85,54,30,30.01,29.43,38,11,45,0.00
2014-11-23,33.8,25.5,17.5,26.5,14.1,0.4,88,63,34,30.00,29.42,26,11,31,0.00
2014-11-24,25.3,18.5,8.2,14.0,5.6,-1.4,78,57,41,30.44,29.92,26,9,36,0.00
2014-11-25,31.8,24.9,8.8,20.3,11.5,0.1,70,57,45,30.43,30.03,40,18,47,0.00
2014-11-26,48.4,38.7,30.6,24.7,22.1,19.3,65,52,37,30.17,29.96,36,14,40,0.00
2014-11-27,51.5,41.0,25.6,20.8,18.0,13.9,69,42,27,30.36,29.86,32,9,35,0.00
2014-11-28,57.1,49.0,43.8,15.0,10.8,7.0,29,21,17,29.86,29.56,32,14,39,0.00
2014-11-29,51.5,46.0,38.9,9.4,7.1,4.0,29,20,16,29.58,29.42,36,18,43,0.00
2014-11-30,48.5,40.1,22.8,12.1,9.6,7.1,63,29,19,30.00,29.49,37,12,40,0.00
2014-12-1,43.8,27.8,13.7,25.1,15.2,9.9,88,63,36,30.36,30.02,25,4,33,0.03
2014-12-2,49.0,36.9,23.9,15.3,9.9,5.1,58,35,18,30.13,29.81,28,11,42,0.00
2014-12-3,48.0,38.8,29.8,28.0,17.9,7.3,50,43,32,29.99,29.75,22,7,34,0.00
2014-12-4,45.6,39.9,33.9,26.9,24.3,20.3,71,54,43,29.89,29.67,19,3,27,0.00
2014-12-5,46.2,35.7,25.6,25.4,20.3,16.1,74,55,33,30.35,29.80,11,2,19,0.00
2014-12-6,41.5,28.9,21.8,25.8,20.3,16.2,81,71,50,30.44,30.21,9,1,10,0.00
2014-12-7,47.7,36.8,25.1,21.7,18.6,13.3,74,49,28,30.29,30.09,17,4,27,0.00
2014-12-8,48.3,29.2,18.8,13.5,10.2,6.1,68,47,20,30.46,30.20,10,3,16,0.00
2014-12-9,54.6,33.2,16.8,6.9,4.0,1.7,57,32,12,30.47,30.05,12,2,17,0.00
2014-12-10,53.8,35.1,20.3,17.4,8.8,2.2,54,35,17,30.29,29.93,6,1,9,0.00
2014-12-11,52.4,35.0,19.5,18.5,13.5,8.8,64,43,22,30.23,29.95,16,3,22,0.00
2014-12-12,51.8,37.6,23.9,18.3,14.6,11.4,64,41,21,30.18,29.91,6,1,12,0.00
2014-12-13,47.9,34.7,26.0,26.6,20.8,16.4,79,58,39,29.94,29.53,15,2,21,0.00
2014-12-14,36.2,29.8,23.5,27.8,19.7,9.6,90,67,49,29.86,29.49,33,8,38,0.00
2014-12-15,33.0,23.8,15.6,10.8,6.4,-4.2,64,48,26,30.30,29.84,15,4,21,0.00
2014-12-16,39.8,24.8,15.3,15.5,9.0,0.0,72,51,35,30.35,29.96,5,2,12,0.00
2014-12-17,33.5,25.1,18.8,21.7,17.1,12.6,87,72,54,30.09,29.85,4,1,6,0.00
2014-12-18,36.0,24.5,15.9,22.1,16.1,10.3,93,72,44,30.17,29.96,11,2,16,0.00
2014-12-19,34.4,25.0,17.3,11.3,9.2,6.9,69,52,36,30.23,30.02,21,8,26,0.00
2014-12-20,39.7,27.7,17.3,19.1,13.6,8.0,71,56,40,30.23,29.81,24,6,31,0.00
2014-12-21,32.7,29.0,26.8,26.9,21.2,15.8,93,73,61,29.85,29.55,21,5,29,0.23
2014-12-22,29.1,23.5,14.1,26.6,19.2,4.8,94,83,62,29.97,29.59,24,3,31,3.38
2014-12-23,21.9,15.2,3.3,7.8,0.3,-5.2,76,52,32,30.38,29.97,25,9,30,2.32
2014-12-24,37.9,24.2,6.4,19.0,7.9,-4.1,62,49,40,30.30,29.55,21,6,35,0.00
2014-12-25,33.8,23.5,15.4,19.4,12.5,8.4,85,63,50,29.69,29.36,14,2,19,0.00
2014-12-26,17.6,9.7,1.1,12.9,5.5,-2.8,88,83,71,30.30,29.62,6,1,10,0.00
2014-12-27,18.0,7.6,-2.9,5.3,-0.9,-6.8,88,69,48,30.57,30.28,21,3,25,0.01
2014-12-28,20.4,17.0,13.3,10.6,3.5,-10.0,79,57,30,30.27,30.00,28,9,31,0.00
2014-12-29,16.2,10.5,0.7,10.8,6.7,-3.0,89,84,74,30.50,30.00,3,0,6,0.00
2014-12-30,3.1,-4.0,-11.6,-3.2,-8.6,-16.1,84,80,71,30.88,30.49,0,0,0,0.00
2014-12-31,20.7,3.2,-11.4,15.8,-1.0,-15.4,87,82,79,30.87,30.35,6,0,9,0.10
2015-1-1,19.5,10.3,1.4,16.3,7.2,-2.0,90,87,80,30.44,29.32,6,0,11,0.00
2015-1-2,25.2,9.7,1.9,17.1,5.4,-1.8,92,83,69,30.51,30.06,4,0,8,0.01